Vorticity
nan nan nan nan nan nan nan nan nan nan nan nan nan nan nan nan nan nan nan nan nan nan nan nan nan nan nan nan nan nan nan nan nan nan nan nan nan nan nan nan nan nan nan nan nan nan nan
nan 6 7 7 6 8 12 11 7 6 6 6 6 5 5 6 6 6 7 7 8 8 8 7 7 14 12 2 14 11 1 3 6 5 6 6 6 7 8 7 9 11 15 13 9 9 nan
nan 5 6 8 8 6 10 12 8 7 7 7 6 5 5 6 6 6 7 8 8 9 7 8 10 13 10 7 0 -3 6 9 7 4 4 4 8 8 9 8 10 10 5 6 6 9 nan
nan 6 6 7 9 7 7 11 11 7 7 7 6 5 5 6 6 7 7 7 8 8 9 10 10 12 7 10 8 6 8 6 10 10 6 6 9 11 8 4 11 10 5 7 7 7 nan
nan 6 6 6 7 8 7 10 11 9 8 7 6 5 5 6 6 7 7 7 12 14 12 9 9 9 2 11 17 11 10 9 11 9 9 11 9 8 6 11 7 7 6 5 13 6 nan
nan 6 6 5 7 8 8 9 11 10 8 8 7 6 6 6 6 7 13 18 13 15 16 8 5 6 11 12 11 13 9 11 8 8 7 7 8 7 9 11 6 5 2 8 10 8 nan
nan 7 6 6 7 8 7 7 10 11 9 8 7 6 6 6 6 7 14 19 12 13 11 8 1 -5 0 7 9 8 15 13 7 7 6 7 7 7 5 6 5 7 5 7 11 13 nan
nan 9 7 6 6 7 7 6 9 10 10 10 8 6 6 6 8 13 11 7 5 6 12 13 3 4 7 5 4 7 15 8 8 5 5 12 8 3 2 6 12 10 11 8 13 16 nan
nan 11 9 7 6 6 6 6 8 10 12 10 9 8 7 9 11 14 11 2 -1 8 15 17 21 11 14 9 6 9 8 9 7 7 11 9 6 6 4 1 7 13 10 12 9 9 nan
nan 8 11 9 7 7 7 7 7 9 11 10 9 9 7 7 9 9 9 13 13 5 8 17 18 11 11 8 13 14 6 7 6 7 9 8 9 5 6 5 16 13 4 8 7 10 nan
nan 5 8 11 9 6 7 8 7 8 11 11 9 10 12 -0 1 6 2 14 19 4 9 17 13 12 12 5 5 14 13 9 11 7 4 8 10 7 12 18 16 11 14 8 8 3 nan
nan 9 8 10 10 8 6 8 7 6 11 13 10 9 5 4 9 4 3 12 14 9 8 12 11 11 7 6 1 9 14 12 15 10 7 7 4 8 10 11 11 9 12 10 12 11 nan
nan 7 10 10 10 9 8 8 6 6 10 12 11 9 -1 3 3 12 15 11 9 6 10 19 11 6 6 7 8 8 11 6 5 6 9 13 7 8 10 6 10 11 10 6 6 13 nan
nan 6 8 9 10 11 10 7 6 7 9 12 13 3 2 4 1 11 14 11 12 7 1 10 15 9 8 4 10 9 7 7 8 5 9 7 7 7 7 18 7 5 13 8 9 5 nan
nan 8 9 9 9 12 10 8 7 7 9 14 7 2 9 13 8 8 13 10 7 3 9 5 9 9 8 6 8 15 7 8 11 8 6 3 7 7 5 11 10 9 7 10 6 7 nan
nan 6 7 10 10 11 11 9 8 7 12 7 0 9 10 14 11 7 11 7 2 -3 1 16 14 8 10 11 6 10 9 7 12 15 8 8 8 8 11 5 12 14 4 7 8 14 nan
nan 6 8 9 7 12 15 10 8 9 13 -0 -1 8 18 11 4 12 11 10 1 -1 7 7 11 14 11 11 10 6 7 11 12 12 11 8 6 6 9 10 5 5 9 11 15 7 nan
nan 9 7 7 11 6 13 14 8 11 7 -2 3 12 13 9 1 9 15 8 4 8 5 9 10 9 13 10 13 10 9 10 13 11 8 8 4 16 11 4 11 10 9 8 5 9 nan
nan 8 8 8 9 4 13 19 9 13 -4 -6 9 11 14 5 5 5 12 11 5 8 3 5 9 6 7 12 14 9 6 7 14 13 8 11 6 9 14 14 17 11 10 7 6 14 nan
nan 11 11 12 15 6 11 20 10 9 -7 -9 10 8 10 5 14 17 7 14 10 3 9 7 7 6 6 11 10 11 11 9 10 11 10 10 14 12 8 7 6 10 12 10 9 6 nan
nan 12 11 12 16 8 10 19 11 9 -4 -9 10 12 11 17 8 10 12 8 11 9 10 5 10 12 7 8 10 11 9 9 8 9 12 8 8 6 8 9 13 14 8 9 12 11 nan
nan 13 13 10 9 10 6 14 18 9 -3 -4 9 8 9 16 21 11 9 14 7 2 5 8 9 8 11 10 11 7 7 10 9 10 8 9 12 10 6 8 11 11 7 10 9 9 nan
nan 14 11 9 10 5 7 15 17 6 -6 -1 4 12 16 13 15 13 9 10 10 4 6 13 8 9 12 12 12 12 15 16 13 10 9 9 9 9 8 7 7 11 17 14 12 13 nan
nan 11 10 13 10 6 9 16 18 7 -11 -7 9 10 10 16 16 15 13 10 11 2 3 14 10 5 12 11 6 9 10 17 13 11 14 9 8 10 11 7 12 8 12 14 10 9 nan
nan 9 12 11 9 7 6 19 21 8 -4 -10 2 12 10 17 17 17 13 7 7 10 11 9 5 20 12 4 8 6 5 8 11 10 10 13 11 13 13 7 2 13 17 10 6 4 nan
nan 8 10 9 6 10 15 22 13 9 1 -0 3 5 13 14 19 20 11 5 10 13 9 10 11 11 13 13 11 13 10 9 7 3 7 13 12 11 9 14 9 9 7 7 13 4 nan
nan 11 10 9 16 20 18 15 9 11 4 -2 10 8 6 11 17 20 16 7 1 10 13 8 8 6 14 10 13 10 16 11 12 10 2 4 14 11 10 7 8 18 10 9 12 10 nan
nan 8 7 14 20 15 12 11 11 11 6 2 3 6 9 8 7 16 21 15 6 7 11 5 7 9 12 14 9 10 13 11 14 12 9 8 8 7 9 7 16 16 13 17 7 11 nan
nan nan nan nan nan nan nan nan nan nan nan nan nan nan nan nan nan nan nan nan nan nan nan nan nan nan nan nan nan nan nan nan nan nan nan nan nan nan nan nan nan nan nan nan nan nan nan
CAPE
16 12 4 0 0 2 0 0 0 0 0 0 0 0 0 0 0 0 0 0 0 0 0 0 0 0 0 0 0 0 167 109 0 0 0 0 0 0 0 0 0 0 0 0 193 67 64
11 14 16 7 0 0 7 0 0 0 0 0 0 0 0 0 0 0 0 0 0 0 0 0 0 0 0 0 0 10 112 0 0 0 0 0 0 0 0 0 4 2 2 3 22 0 1
4 7 12 20 15 0 0 2 0 0 0 0 0 0 0 0 0 0 0 0 0 0 0 0 0 0 0 0 0 0 0 6 0 0 0 0 0 0 0 20 0 0 0 2 20 1 0
13 8 12 15 14 6 0 0 0 0 0 0 0 0 0 0 0 0 0 0 0 0 0 0 0 0 0 0 0 0 0 0 25 11 1 14 7 10 1 0 0 0 0 0 8 40 1
19 11 8 5 13 11 0 0 0 0 0 0 0 0 0 0 0 0 0 0 0 0 0 0 0 0 0 0 0 0 0 0 8 33 15 3 0 10 13 0 0 0 0 0 0 9 18
28 22 9 1 6 11 7 0 0 1 0 0 0 0 0 0 0 0 0 0 0 0 0 0 0 0 0 0 0 0 0 0 0 22 31 4 0 1 0 0 0 0 0 0 0 1 4
40 29 24 10 9 20 18 0 0 0 0 0 0 0 0 0 0 0 0 0 0 0 0 0 0 0 0 0 0 0 0 0 0 11 26 25 19 2 4 0 0 0 0 0 0 0 0
46 40 30 19 15 26 27 9 0 0 1 0 0 0 0 0 0 0 0 0 0 0 0 0 0 0 0 0 0 0 0 0 0 0 0 7 31 2 0 0 0 0 0 3 2 0 0
47 51 40 34 23 24 24 19 0 0 0 0 0 0 0 0 0 0 0 0 0 0 0 0 0 0 0 0 0 0 0 0 0 0 0 0 0 3 0 0 23 7 8 0 2 1 0
48 49 46 38 33 27 18 20 8 0 0 0 0 0 0 0 0 0 0 0 0 0 0 0 0 0 0 0 0 0 0 0 0 0 0 0 0 0 0 2 10 3 0 4 1 0 0
65 56 51 41 32 20 12 6 14 0 3 0 0 0 0 0 0 0 0 0 0 0 0 0 0 0 0 0 0 0 0 0 0 0 0 0 0 0 0 0 6 12 4 2 26 4 0
89 65 64 60 32 25 20 20 0 0 0 0 0 0 0 0 0 0 0 0 0 23 0 0 0 0 0 0 0 0 0 0 0 0 0 0 0 0 11 37 7 0 0 28 2 5 0
84 84 75 78 51 36 29 34 14 0 0 0 0 0 0 0 0 0 0 0 15 24 0 0 0 0 0 0 0 0 0 0 0 0 0 0 0 0 0 1 8 0 8 3 0 0 16
91 96 86 86 78 68 39 35 13 0 0 0 0 0 0 0 0 0 0 52 10 0 0 0 0 0 0 0 0 0 0 0 0 0 0 0 0 0 0 51 95 6 15 0 4 1 16
107 113 111 94 93 86 64 37 27 0 0 0 0 0 0 0 0 0 53 25 0 0 0 0 0 0 0 0 0 0 0 0 0 0 0 18 10 7 54 37 15 24 28 51 2 1 12
113 108 127 110 104 81 58 51 50 0 0 0 0 3 0 0 0 0 48 2 0 0 0 2 1 0 0 0 0 3 0 0 0 0 0 16 8 0 17 70 18 14 2 7 3 0 0
152 89 109 91 94 92 66 54 62 6 0 1 1 2 0 0 0 31 7 9 0 0 0 0 0 0 0 0 0 0 3 0 0 23 42 29 0 0 1 14 15 1 6 0 0 0 0
130 140 116 115 52 86 64 55 67 24 6 7 9 2 0 8 7 9 3 0 0 0 0 0 0 0 0 0 1 0 9 0 0 42 34 23 0 3 0 0 1 9 9 14 0 0 0
120 125 119 101 111 93 24 69 68 47 0 15 8 50 59 1 0 0 0 0 0 0 0 0 0 0 0 0 11 0 1 112 15 43 19 70 4 0 0 0 18 21 0 0 0 0 0
110 136 147 39 94 118 6 84 72 62 1 24 20 29 80 31 0 0 0 0 0 0 0 0 0 1 0 0 2 58 95 90 54 1 0 39 35 0 0 0 0 13 0 0 0 0 0
116 136 135 57 160 139 13 86 74 77 7 31 20 43 31 23 17 0 0 0 0 0 0 0 1 0 0 0 0 9 93 40 42 0 0 0 0 0 0 0 0 1 2 0 0 0 0
113 125 116 134 86 41 28 33 73 81 31 18 19 31 63 26 17 1 0 0 0 0 0 0 1 0 0 0 0 9 94 81 0 0 0 0 0 0 0 0 0 0 0 0 0 0 0
99 141 115 111 104 10 17 15 76 87 61 9 3 25 38 0 4 0 0 0 0 0 0 0 0 1 14 0 82 68 149 99 38 0 0 4 0 0 0 0 0 0 0 0 0 0 0
99 143 138 106 74 7 8 21 80 80 10 19 2 44 84 25 11 0 0 0 0 0 0 44 1 7 99 62 67 4 0 19 129 43 13 14 5 0 0 0 0 0 0 0 0 0 0
81 135 151 138 78 43 14 22 74 49 29 3 1 67 81 38 3 0 0 0 0 0 48 40 82 164 123 220 38 4 13 0 5 1 1 25 0 0 0 0 0 0 0 0 0 0 0
92 120 116 105 93 36 36 33 45 41 44 34 0 21 12 80 7 0 0 0 0 18 79 23 105 50 125 329 148 5 1 0 0 0 0 0 0 0 0 0 0 0 0 0 0 0 0
106 84 8 36 65 56 44 47 21 51 69 36 0 23 6 6 50 6 0 0 2 217 143 47 31 2 0 0 108 7 69 0 0 0 0 0 0 0 0 0 0 0 0 0 0 0 0
75 65 23 24 54 51 62 78 53 40 85 54 2 0 11 5 0 58 3 0 17 140 4 1 2 12 65 30 74 266 68 14 41 0 0 0 0 0 0 0 0 0 0 0 0 0 0
59 57 43 48 50 60 49 27 59 43 44 2 0 1 14 12 5 0 45 10 33 46 0 0 0 49 125 201 290 14 58 0 0 4 0 0 0 0 0 0 0 0 0 0 0 0 0